Regional Weather Roundup
Issued by NWS

Home | Current Version | Previous Version | Graphics & Text | Print | Product List | Glossary On
Versions: 1 2 3 4 5 6 7 8 9 10 11 12 13 14 15 16 17 18 19 20 21 22 23 24 25 26 27 28 29 30 31 32 33 34 35 36 37 38 39 40 41 42 43 44 45 46 47 48 49 50
000
ASUS44 KMEG 120800
RWRTN
TENNESSEE HOURLY STATE WEATHER ROUNDUP
NATIONAL WEATHER SERVICE MEMPHIS TN
300 AM CDT SAT JUL 12 2014

TNZ002-004-019-021-049-052-054-088>092-120900-
WEST TENNESSEE

CITY           SKY/WX    TMP DP  RH WIND       PRES   REMARKS
MEMPHIS INTL   CLEAR     75  72  90 CALM      30.13F
NWS MEMPHIS      N/A     72 N/A N/A MISG        N/A
JACKSON        CLEAR     68  66  93 CALM      30.14F FOG
DYERSBURG      CLEAR     72  63  73 CALM      30.14S
UNION CITY     CLEAR     70  70 100 CALM      30.13S
LEXINGTON      CLEAR     66  66 100 CALM      30.14S
$$

TNZ008-025-027-028-033-062-065-066-120900-
NORTH MIDDLE TENNESSEE

CITY           SKY/WX    TMP DP  RH WIND       PRES   REMARKS
NASHVILLE      CLEAR     70  65  84 CALM      30.16S
CLARKSVILLE    CLEAR     67  64  90 CALM      30.15S
COOKEVILLE     CLEAR     63  63 100 CALM      30.17F
CROSSVILLE     CLEAR     65  61  87 CALM      30.23S
$$

TNZ061-075-076-078-094-096-097-120900-
SOUTH MIDDLE TENNESSEE

CITY           SKY/WX    TMP DP  RH WIND       PRES   REMARKS
TULLAHOMA      CLEAR     66  63  88 CALM      30.18S
WINCHESTER     CLEAR     66  64  94 CALM      30.17S
MCMINNVILLE    CLEAR     64  64 100 CALM      30.17F
COLUMBIA       CLEAR     70  68  94 CALM      30.14F
$$

TNZ017-018-042-046-047-120900-
NORTHEAST TENNESSEE

CITY           SKY/WX    TMP DP  RH WIND       PRES   REMARKS
TRI CITIES     PTCLDY    64  61  90 NE3       30.22S
ELIZABETHTON   SUNNY     64  63  94 CALM      30.23S
$$

TNZ012-013-036-069-073-074-120900-
CENTRAL EAST TENNESSEE

CITY           SKY/WX    TMP DP  RH WIND       PRES   REMARKS
KNOXVILLE      PTCLDY    69  65  86 NE5       30.16F
OAK RIDGE      CLEAR     67  64  90 CALM      30.18F
$$

TNZ083-085-099-120900-
SOUTHEAST TENNESSEE

CITY           SKY/WX    TMP DP  RH WIND       PRES   REMARKS
CHATTANOOGA    CLEAR     71  66  84 CALM      30.16F
$$

SKY/WX REPORTED AS FAIR MEANS FEW OR NO CLOUDS BELOW
12 THOUSAND FEET.




USA.gov is the U.S. government's official web portal to all federal, state and local government web resources and services.